Location: Larrial
(48.2758°N, 4.5331°W)
Time: 01:07:20
(UTC+00:00)

STARLINK-1245 - Pass Details

Date: 09 April 2020
Orbit: 549 x 551 km, 53.0° (Epoch: 30 May)

Event Time Altitude Azimuth Distance (km) Brightness Sun altitude
Rises 19:51:26 0° 296° (WNW) 2,728 9.6 -8.8°
Reaches altitude 10° 19:53:42 10° 293° (WNW) 1,831 8.0 -9.2°
Maximum altitude 19:57:48 61° 213° (SSW) 630 3.9 -9.8°
Enters shadow 20:01:24 13° 134° (SE) 1,636 5.4 -10.4°
